H1 CPF 2 NER 2023 6 10 9 161 01 glonass137 H2 1705501 9137 42939 2023 6 10 0 0 0 2023 6 13 23 45 0 900 1 1 0 0 0 1 H9 10 0 60105 0.00000 0 9050890.661 7578751.542 22628812.766 10 0 60105 900.00000 0 6623812.194 8989313.301 22949130.500 10 0 60105 1800.00000 0 4293669.480 10576687.116 22824482.305 10 0 60105 2700.00000 0 2116243.054 12300434.682 22257195.762 10 0 60105 3600.00000 0 139122.039 14111239.950 21258168.221 10 0 60105 4500.00000 0 -1600052.660 15952842.917 19846665.179 10 0 60105 5400.00000 0 -3074922.734 17764283.467 18049957.930 10 0 60105 6300.00000 0 -4271269.463 19482362.900 15902806.352 10 0 60105 7200.00000 0 -5187357.950 21044221.249 13446795.724 10 0 60105 8100.00000 0 -5833754.520 22389923.144 10729539.255 10 0 60105 9000.00000 0 -6232625.145 23464944.047 7803760.817 10 0 60105 9900.00000 0 -6416544.583 24222452.229 4726275.002 10 0 60105 10800.00000 0 -6426866.687 24625289.964 1556883.979 10 0 60105 11700.00000 0 -6311725.071 24647569.660 -1642787.416 10 0 60105 12600.00000 0 -6123749.281 24275816.551 -4810495.239 10 0 60105 13500.00000 0 -5917593.913 23509608.698 -7884594.549 10 0 60105 14400.00000 0 -5747386.395 22361686.173 -10805247.459 10 0 60105 15300.00000 0 -5664202.708 20857523.930 -13515596.559 10 0 60105 16200.00000 0 -5713679.266 19034385.623 -15962879.910 10 0 60105 17100.00000 0 -5933863.375 16939897.740 -18099465.041 10 0 60105 18000.00000 0 -6353394.431 14630203.749 -19883781.179 10 0 60105 18900.00000 0 -6990093.853 12167775.693 -21281131.165 10 0 60105 19800.00000 0 -7850024.243 9618974.978 -22264367.191 10 0 60105 20700.00000 0 -8927058.179 7051464.534 -22814417.280 10 0 60105 21600.00000 0 -10202975.382 4531580.447 -22920652.644 10 0 60105 22500.00000 0 -11648084.597 2121772.583 -22581089.195 10 0 60105 23400.00000 0 -13222344.281 -121779.463 -21802419.821 10 0 60105 24300.00000 0 -14876935.228 -2151276.467 -20599877.295 10 0 60105 25200.00000 0 -16556219.202 -3929048.811 -18996930.951 10 0 60105 26100.00000 0 -18200001.464 -5428873.241 -17024823.425 10 0 60105 27000.00000 0 -19746002.301 -6636803.834 -14721956.792 10 0 60105 27900.00000 0 -21132433.952 -7551484.303 -12133140.311 10 0 60105 28800.00000 0 -22300574.844 -8183930.511 -9308714.665 10 0 60105 29700.00000 0 -23197233.241 -8556794.341 -6303569.955 10 0 60105 30600.00000 0 -23776997.071 -8703141.738 -3176076.771 10 0 60105 31500.00000 0 -24004175.690 -8664798.063 13048.635 10 0 60105 32400.00000 0 -23854352.341 -8490331.959 3201922.790 10 0 60105 33300.00000 0 -23315482.475 -8232763.872 6328694.088 10 0 60105 34200.00000 0 -22388492.123 -7947096.776 9332739.124 10 0 60105 35100.00000 0 -21087351.478 -7687773.783 12155833.222 10 0 60105 36000.00000 0 -19438620.734 -7506170.147 14743272.760 10 0 60105 36900.00000 0 -17480487.117 -7448225.426 17044928.003 10 0 60105 37800.00000 0 -15261333.092 -7552315.471 19016206.726 10 0 60105 38700.00000 0 -12837894.932 -7847453.691 20618910.790 10 0 60105 39600.00000 0 -10273087.620 -8351897.199 21821969.886 10 0 60105 40500.00000 0 -7633585.544 -9072216.560 22602039.098 10 0 60105 41400.00000 0 -4987258.341 -10002868.615 22943949.367 10 0 60105 42300.00000 0 -2400567.059 -11126291.035 22841002.550 10 0 60105 43200.00000 0 63972.631 -12413515.744 22295105.510 10 0 60105 44100.00000 0 2350156.195 -13825276.839 21316740.359 10 0 60105 45000.00000 0 4410187.839 -15313568.141 19924770.894 10 0 60105 45900.00000 0 6206423.765 -16823586.693 18146088.053 10 0 60105 46800.00000 0 7712689.274 -18295982.247 16015100.168 10 0 60105 47700.00000 0 8915115.299 -19669319.627 13573076.728 10 0 60105 48600.00000 0 9812459.803 -20882651.493 10867357.178 10 0 60105 49500.00000 0 10415900.797 -21878093.866 7950439.158 10 0 60105 50400.00000 0 10748309.873 -22603296.013 4878963.130 10 0 60105 51300.00000 0 10843037.025 -23013700.251 1712612.791 10 0 60105 52200.00000 0 10742258.346 -23074495.552 -1487047.378 10 0 60105 53100.00000 0 10494956.836 -22762181.427 -4657774.404 10 0 60105 54000.00000 0 10154622.436 -22065674.795 -7737864.862 10 0 60105 54900.00000 0 9776769.491 -20986911.845 -10667364.073 10 0 60105 55800.00000 0 9416377.813 -19540918.242 -13389241.859 10 0 60105 56700.00000 0 9125366.866 -17755343.699 -15850511.003 10 0 60105 57600.00000 0 8950211.158 -15669479.649 -18003265.749 10 0 60105 58500.00000 0 8929798.847 -13332800.778 -19805619.488 10 0 60105 59400.00000 0 9093625.072 -10803091.264 -21222522.948 10 0 60105 60300.00000 0 9460397.131 -8144234.054 -22226446.903 10 0 60105 61200.00000 0 10037110.913 -5423755.590 -22797916.179 10 0 60105 62100.00000 0 10818637.943 -2710228.432 -22925884.927 10 0 60105 63000.00000 0 11787840.596 -70639.962 -22607946.310 10 0 60105 63900.00000 0 12916210.682 2432163.527 -21850373.018 10 0 60105 64800.00000 0 14165004.489 4741851.453 -20667988.343 10 0 60105 65700.00000 0 15486826.420 6810704.284 -19083870.779 10 0 60105 66600.00000 0 16827594.513 8601343.397 -17128898.289 10 0 60105 67500.00000 0 18128805.038 10088024.799 -14841141.441 10 0 60105 68400.00000 0 19330000.892 11257444.382 -12265117.483 10 0 60105 69300.00000 0 20371339.878 12109022.898 -9450920.139 10 0 60105 70200.00000 0 21196154.846 12654660.687 -6453242.288 10 0 60105 71100.00000 0 21753398.039 12917974.400 -3330310.752 10 0 60105 72000.00000 0 21999866.922 12933049.622 -142754.182 10 0 60105 72900.00000 0 21902117.999 12742763.507 3047573.772 10 0 60105 73800.00000 0 21437988.317 12396749.434 6178793.015 10 0 60105 74700.00000 0 20597660.858 11949090.494 9190193.935 10 0 60105 75600.00000 0 19384229.189 11455839.718 12023409.625 10 0 60105 76500.00000 0 17813737.640 10972471.935 14623540.966 10 0 60105 77400.00000 0 15914695.148 10551374.705 16940213.218 10 0 60105 78300.00000 0 13727082.694 10239483.824 18928544.335 10 0 60105 79200.00000 0 11300895.098 10076162.622 20550007.064 10 0 60105 80100.00000 0 8694277.081 10091413.925 21773168.945 10 0 60105 81000.00000 0 5971330.022 10304499.589 22574296.741 10 0 60105 81900.00000 0 3199679.217 10723025.570 22937814.265 10 0 60105 82800.00000 0 447901.251 11342531.156 22856605.183 10 0 60105 83700.00000 0 -2217083.300 12146600.225 22332155.062 10 0 60105 84600.00000 0 -4732545.079 13107490.722 21374529.706 10 0 60105 85500.00000 0 -7042305.157 14187257.149 20002189.620 10 0 60106 0.00000 0 -9098821.172 15339320.177 18241643.505 10 0 60106 900.00000 0 -10864915.568 16510419.476 16126945.360 10 0 60106 1800.00000 0 -12315071.831 17642867.373 13699046.223 10 0 60106 2700.00000 0 -13436248.661 18677011.633 11005008.765 10 0 60106 3600.00000 0 -14228175.445 19553802.740 8097101.247 10 0 60106 4500.00000 0 -14703117.887 20217358.258 5031786.827 10 0 60106 5400.00000 0 -14885123.571 20617415.734 1868627.598 10 0 60106 6300.00000 0 -14808779.437 20711569.838 -1330875.363 10 0 60106 7200.00000 0 -14517533.894 20467198.187 -4504482.961 10 0 60106 8100.00000 0 -14061655.009 19862993.152 -7590436.015 10 0 60106 9000.00000 0 -13495911.813 18890033.515 -10528665.553 10 0 60106 9900.00000 0 -12877077.752 17552349.268 -13261970.858 10 0 60106 10800.00000 0 -12261362.927 15866954.434 -15737141.331 10 0 60106 11700.00000 0 -11701884.822 13863345.359 -17905999.479 10 0 60106 12600.00000 0 -11246285.486 11582484.686 -19726344.021 10 0 60106 13500.00000 0 -10934596.726 9075313.016 -21162774.362 10 0 60106 14400.00000 0 -10797444.146 6400850.152 -22187380.266 10 0 60106 15300.00000 0 -10854666.234 3623965.109 -22780283.405 10 0 60106 16200.00000 0 -11114406.920 812907.801 -22930020.557 10 0 60106 17100.00000 0 -11572719.773 -1963294.870 -22633761.452 10 0 60106 18000.00000 0 -12213700.337 -4637470.279 -21897357.540 10 0 60106 18900.00000 0 -13010140.603 -7146849.649 -20735221.233 10 0 60106 19800.00000 0 -13924677.730 -9435430.433 -19170038.450 10 0 60106 20700.00000 0 -14911388.140 -11456054.089 -17232320.449 10 0 60106 21600.00000 0 -15917759.499 -13172113.850 -14959804.020 10 0 60106 22500.00000 0 -16886957.163 -14558822.732 -12396711.965 10 0 60106 23400.00000 0 -17760289.322 -15603990.450 -9592888.520 10 0 60106 24300.00000 0 -18479766.779 -16308278.548 -6602826.787 10 0 60106 25200.00000 0 -18990649.361 -16684924.928 -3484607.292 10 0 60106 26100.00000 0 -19243871.586 -16758951.148 -298768.595 10 0 60106 27000.00000 0 -19198245.416 -16565887.483 2892867.896 10 0 60106 27900.00000 0 -18822347.327 -16150070.870 6028395.961 10 0 60106 28800.00000 0 -18096010.334 -15562588.544 9047022.078 10 0 60106 29700.00000 0 -17011358.208 -14858954.794 11890239.322 10 0 60106 30600.00000 0 -15573338.338 -14096619.187 14502955.162 10 0 60106 31500.00000 0 -13799730.612 -13332411.263 16834551.763 10 0 60106 32400.00000 0 -11720631.471 -12620029.107 18839858.935 10 0 60106 33300.00000 0 -9377433.935 -12007676.996 20480021.697 10 0 60106 34200.00000 0 -6821345.186 -11535950.911 21723246.486 10 0 60106 35100.00000 0 -4111502.197 -11236060.181 22545412.430 10 0 60106 36000.00000 0 -1312762.297 -11128459.486 22930536.538 10 0 60106 36900.00000 0 1506741.092 -11221948.417 22871084.240 10 0 60106 37800.00000 0 4278177.784 -11513276.428 22368119.446 10 0 60106 38700.00000 0 6934629.765 -11987270.152 21431290.980 10 0 60106 39600.00000 0 9413622.934 -12617478.435 20078655.113 10 0 60106 40500.00000 0 11659477.727 -13367308.947 18336336.750 10 0 60106 41400.00000 0 13625381.907 -14191609.669 16238034.724 10 0 60106 42300.00000 0 15275099.813 -15038629.838 13824379.598 10 0 60106 43200.00000 0 16584247.209 -15852278.692 11142155.233 10 0 60106 44100.00000 0 17541078.596 -16574587.498 8243398.189 10 0 60106 45000.00000 0 18146754.005 -17148271.244 5184391.720 10 0 60106 45900.00000 0 18415074.074 -17519281.666 2024573.484 10 0 60106 46800.00000 0 18371694.555 -17639243.133 -1174621.828 10 0 60106 47700.00000 0 18052853.475 -17467667.380 -4350962.047 10 0 60106 48600.00000 0 17503665.018 -16973852.167 -7442635.254 10 0 60106 49500.00000 0 16776052.676 -16138382.061 -10389461.092 10 0 60106 50400.00000 0 15926409.784 -14954166.368 -13134071.022 10 0 60106 51300.00000 0 15013087.182 -13426968.868 -15623033.550 10 0 60106 52200.00000 0 14093815.128 -11575405.603 -17807901.647 10 0 60106 53100.00000 0 13223169.309 -9430409.639 -19646161.237 10 0 60106 54000.00000 0 12450188.730 -7034184.335 -21102061.911 10 0 60106 54900.00000 0 11816246.583 -4438688.268 -22147313.540 10 0 60106 55800.00000 0 11353264.204 -1703714.751 -22761635.316 10 0 60106 56700.00000 0 11082343.427 1105354.203 -22933146.872 10 0 60106 57600.00000 0 11012874.694 3920026.060 -22658594.301 10 0 60106 58500.00000 0 11142158.017 6671305.085 -21943407.177 10 0 60106 59400.00000 0 11455552.080 9292320.623 -20801586.007 10 0 60106 60300.00000 0 11927144.475 11720867.449 -19255422.742 10 0 60106 61200.00000 0 12520914.016 13901753.128 -17335060.212 10 0 60106 62100.00000 0 13192335.424 15788855.521 -15077899.392 10 0 60106 63000.00000 0 13890358.032 17346805.856 -12527866.304 10 0 60106 63900.00000 0 14559674.473 18552228.440 -9734553.094 10 0 60106 64800.00000 0 15143183.196 19394486.785 -6752250.242 10 0 60106 65700.00000 0 15584540.531 19875906.570 -3638888.946 10 0 60106 66600.00000 0 15830694.374 20011467.781 -454914.532 10 0 60106 67500.00000 0 15834292.463 19827980.610 2737887.014 10 0 60106 68400.00000 0 15555863.570 19362781.218 5877586.453 10 0 60106 69300.00000 0 14965679.648 18662003.441 8903309.306 10 0 60106 70200.00000 0 14045220.430 17778500.091 11756411.351 10 0 60106 71100.00000 0 12788178.741 16769501.861 14381609.087 10 0 60106 72000.00000 0 11200963.971 15694112.517 16728043.724 10 0 60106 72900.00000 0 9302682.125 14610745.561 18750258.743 10 0 60106 73800.00000 0 7124592.498 13574609.612 20409072.914 10 0 60106 74700.00000 0 4709062.649 12635347.457 21672332.715 10 0 60106 75600.00000 0 2108063.960 11834927.104 22515530.417 10 0 60106 76500.00000 0 -618731.149 11205872.497 22922276.609 10 0 60106 77400.00000 0 -3406172.888 10769907.488 22884618.450 10 0 60106 78300.00000 0 -6186088.091 10537069.501 22403197.682 10 0 60106 79200.00000 0 -8889864.378 10505329.898 21487245.150 10 0 60106 80100.00000 0 -11451058.820 10660737.209 20154411.382 10 0 60106 81000.00000 0 -13807924.104 10978077.641 18430435.663 10 0 60106 81900.00000 0 -15905748.306 11422025.828 16348658.887 10 0 60106 82800.00000 0 -17698911.533 11948738.190 13949388.458 10 0 60106 83700.00000 0 -19152574.152 12507822.557 11279126.322 10 0 60106 84600.00000 0 -20243926.140 13044601.620 8389674.074 10 0 60106 85500.00000 0 -20962945.185 13502574.923 5337131.735 10 0 60107 0.00000 0 -21312631.514 13825975.317 2180809.519 10 0 60107 900.00000 0 -21308709.469 13962311.392 -1017928.041 10 0 60107 1800.00000 0 -20978807.949 13864787.024 -4196858.481 10 0 60107 2700.00000 0 -20361154.873 13494495.008 -7294120.024 10 0 60107 3600.00000 0 -19502840.544 12822289.994 -10249423.584 10 0 60107 4500.00000 0 -18457723.939 11830260.092 -13005235.198 10 0 60107 5400.00000 0 -17284071.004 10512733.301 -15507904.560 10 0 60107 6300.00000 0 -16042025.426 8876774.714 -17708716.806 10 0 60107 7200.00000 0 -14791019.461 6942152.163 -19564846.357 10 0 60107 8100.00000 0 -13587234.716 4740770.556 -21040193.826 10 0 60107 9000.00000 0 -12481220.454 2315597.657 -22106089.551 10 0 60107 9900.00000 0 -11515770.005 -280874.370 -22741850.149 10 0 60107 10800.00000 0 -10724144.623 -2988567.896 -22935177.559 10 0 60107 11700.00000 0 -10128719.189 -5742078.698 -22682393.249 10 0 60107 12600.00000 0 -9740106.051 -8473160.855 -21988503.541 10 0 60107 13500.00000 0 -9556792.999 -11113334.511 -20867095.289 10 0 60107 14400.00000 0 -9565309.529 -13596508.285 -19340064.417 10 0 60107 15300.00000 0 -9740913.269 -15861507.614 -17437183.006 10 0 60107 16200.00000 0 -10048766.512 -17854404.394 -15195513.715 10 0 60107 17100.00000 0 -10445552.181 -19530551.680 -12658683.178 10 0 60107 18000.00000 0 -10881460.123 -20856239.558 -9876028.826 10 0 60107 18900.00000 0 -11302459.074 -21809904.297 -6901635.936 10 0 60107 19800.00000 0 -11652757.740 -22382841.552 -3793283.900 10 0 60107 20700.00000 0 -11877350.564 -22579395.243 -611322.454 10 0 60107 21600.00000 0 -11924540.321 -22416615.648 2582500.054 10 0 60107 22500.00000 0 -11748330.826 -21923402.478 5726233.475 10 0 60107 23400.00000 0 -11310588.624 -21139170.151 8758924.371 10 0 60107 24300.00000 0 -10582882.438 -20112092.312 11621793.122 10 0 60107 25200.00000 0 -9547922.712 -18897000.046 14259367.050 10 0 60107 26100.00000 0 -8200540.470 -17553022.337 16620548.055 10 0 60107 27000.00000 0 -6548163.923 -16141067.814 18659594.761 10 0 60107 27900.00000 0 -4610772.144 -14721253.016 20337000.948 10 0 60107 28800.00000 0 -2420326.790 -13350384.330 21620254.132 10 0 60107 29700.00000 0 -19704.297 -12079598.249 22484460.453 10 0 60107 30600.00000 0 2538828.449 -10952257.778 22912824.512 10 0 60107 31500.00000 0 5195533.267 -10002192.160 22896975.339 10 0 60107 32400.00000 0 7885436.684 -9252352.801 22437132.382 10 0 60107 33300.00000 0 10540791.773 -8713941.098 21542108.108 10 0 60107 34200.00000 0 13093665.223 -8386044.455 20229146.653 10 0 60107 35100.00000 0 15478543.669 -8255795.726 18523600.769 10 0 60107 36000.00000 0 17634852.086 -8299049.663 16458452.243 10 0 60107 36900.00000 0 19509280.184 -8481548.373 14073683.852 10 0 60107 37800.00000 0 21057820.248 -8760527.212 11415513.849 10 0 60107 38700.00000 0 22247431.401 -9086693.863 8535506.742 10 0 60107 39600.00000 0 23057260.406 -9406497.313 5489576.866 10 0 60107 40500.00000 0 23479367.498 -9664590.787 2336903.651 10 0 60107 41400.00000 0 23518926.300 -9806384.060 -861220.395 10 0 60107 42300.00000 0 23193889.025 -9780576.336 -4042586.231 10 0 60107 43200.00000 0 22534130.852 -9541561.317 -7145285.411 10 0 60107 44100.00000 0 21580109.483 -9051601.225 -10108923.240 10 0 60107 45000.00000 0 20381096.665 -8282676.181 -12875803.268 10 0 60107 45900.00000 0 18993056.664 -7217929.053 -15392059.063 10 0 60107 46800.00000 0 17476261.784 -5852643.109 -17608710.316 10 0 60107 47700.00000 0 15892746.090 -4194709.690 -19482621.994 10 0 60107 48600.00000 0 14303705.229 -2264564.890 -20977347.423 10 0 60107 49500.00000 0 12766952.301 -94596.715 -22063838.730 10 0 60107 50400.00000 0 11334537.015 2271953.279 -22721010.875 10 0 60107 51300.00000 0 10050628.207 4782548.582 -22936148.599 10 0 60107 52200.00000 0 8949748.231 7377311.957 -22705148.826 10 0 60107 53100.00000 0 8055432.723 9991294.061 -22032594.267 10 0 60107 54000.00000 0 7379370.970 12556962.170 -20931657.341 10 0 60107 54900.00000 0 6921061.754 15006805.616 -19423836.755 10 0 60107 55800.00000 0 6667997.739 17275949.661 -17538532.260 10 0 60107 56700.00000 0 6596369.160 19304669.325 -15312466.246 10 0 60107 57600.00000 0 6672255.733 21040698.931 -12788963.663 10 0 60107 58500.00000 0 6853255.208 22441241.702 -10017104.604 10 0 60107 59400.00000 0 7090478.659 23474596.354 -7050766.258 10 0 60107 60300.00000 0 7330827.293 24121333.755 -3947573.092 10 0 60107 61200.00000 0 7519453.794 24374975.531 -767776.002 10 0 60107 62100.00000 0 7602303.659 24242147.451 2426917.622 10 0 60107 63000.00000 0 7528628.730 23742202.377 5574539.982 10 0 60107 63900.00000 0 7253366.542 22906329.715 8614061.816 10 0 60107 64800.00000 0 6739284.887 21776189.696 11486571.024 10 0 60107 65700.00000 0 5958801.045 20402130.465 14136408.395 10 0 60107 66600.00000 0 4895398.864 18841063.133 16512238.870 10 0 60107 67500.00000 0 3544583.781 17154083.865 18568038.237 10 0 60107 68400.00000 0 1914335.103 15403942.293 20263976.976 10 0 60107 69300.00000 0 25035.784 13652461.552 21567184.995 10 0 60107 70200.00000 0 -2091118.518 11958016.951 22452383.288 10 0 60107 71100.00000 0 -4391207.884 10373177.586 22902371.075 10 0 60107 72000.00000 0 -6823130.371 8942608.368 22908359.439 10 0 60107 72900.00000 0 -9327535.661 7701319.010 22470145.244 10 0 60107 73800.00000 0 -11840071.612 6673332.292 21596121.796 10 0 60107 74700.00000 0 -14293852.044 5870826.597 20303125.517 10 0 60107 75600.00000 0 -16622044.763 5293788.229 18616120.788 10 0 60107 76500.00000 0 -18760473.423 4930187.912 16567727.926 10 0 60107 77400.00000 0 -20650125.760 4756674.160 14197602.282 10 0 60107 78300.00000 0 -22239464.067 4739754.574 11551675.245 10 0 60107 79200.00000 0 -23486441.506 4837415.526 8681270.812 10 0 60107 80100.00000 0 -24360139.582 5001112.087 5642114.060 10 0 60107 81000.00000 0 -24841957.665 5178044.031 2493250.323 10 0 60107 81900.00000 0 -24926303.926 5313621.358 -704104.035 10 0 60107 82800.00000 0 -24620757.982 5354014.246 -3887756.529 10 0 60107 83700.00000 0 -23945697.843 5248678.456 -6995755.284 10 0 60107 84600.00000 0 -22933406.489 4952747.906 -9967603.000 10 0 60107 85500.00000 0 -21626695.625 4429191.602 -12745443.476 10 0 60108 0.00000 0 -20077104.865 3650642.082 -15275196.337 10 0 60108 900.00000 0 -18342751.694 2600815.997 -17507618.283 10 0 60108 1800.00000 0 -16485925.341 1275466.354 -19399266.113 10 0 60108 2700.00000 0 -14570523.534 -317176.511 -20913346.857 10 0 60108 3600.00000 0 -12659442.326 -2156494.026 -22020434.843 10 0 60108 4500.00000 0 -10812028.107 -4210096.205 -22699043.202 10 0 60108 5400.00000 0 -9081698.817 -6434941.050 -22936038.740 10 0 60108 6300.00000 0 -7513833.772 -8778910.284 -22726892.559 10 0 60108 7200.00000 0 -6144019.898 -11182775.963 -22075762.016 10 0 60108 8100.00000 0 -4996726.864 -13582476.124 -20995402.953 10 0 60108 9000.00000 0 -4084465.325 -15911604.796 -19506914.387 10 0 60108 9900.00000 0 -3407462.064 -18104012.644 -17639321.040 10 0 60108 10800.00000 0 -2953863.979 -20096410.040 -15429002.176 10 0 60108 11700.00000 0 -2700460.606 -21830864.269 -12918978.155 10 0 60108 12600.00000 0 -2613893.077 -23257086.983 -10158068.859 10 0 60108 13500.00000 0 -2652297.021 -24334416.935 -7199940.607 10 0 60108 14400.00000 0 -2767308.743 -25033415.763 -4102060.337 10 0 60108 15300.00000 0 -2906348.856 -25337010.869 -924577.677 10 0 60108 16200.00000 0 -3015086.026 -25241138.454 2270843.147 10 0 60108 17100.00000 0 -3039976.091 -24754860.731 5422218.713 10 0 60108 18000.00000 0 -2930768.887 -23899953.348 8468445.776 10 0 60108 18900.00000 0 -2642876.666 -22709981.116 11350481.433 10 0 60108 19800.00000 0 -2139504.021 -21228901.439 14012481.465 10 0 60108 20700.00000 0 -1393449.432 -19509254.295 16402875.207 10 0 60108 21600.00000 0 -388502.396 -17610014.602 18475356.787 10 0 60108 22500.00000 0 879622.971 -15594196.477 20189774.354 10 0 60108 23400.00000 0 2402857.609 -13526308.922 21512900.944 10 0 60108 24300.00000 0 4160869.438 -11469768.240 22419072.912 10 0 60108 25200.00000 0 6121674.916 -9484374.029 22890684.347 10 0 60108 26100.00000 0 8242746.206 -7623952.810 22918528.399 10 0 60108 27000.00000 0 10472569.525 -5934266.301 22501979.136 10 0 60108 27900.00000 0 12752591.606 -4451270.432 21649010.271 10 0 60108 28800.00000 0 15019475.040 -3199796.815 20376049.887 10 0 60108 29700.00000 0 17207570.255 -2192711.027 18707673.151 10 0 60108 30600.00000 0 19251502.588 -1430582.428 16676137.868 10 0 60108 31500.00000 0 21088767.580 -901879.139 14320770.676 10 0 60108 32400.00000 0 22662226.770 -583679.936 11687214.561 10 0 60108 33300.00000 0 23922399.834 -442873.120 8826551.173 10 0 60108 34200.00000 0 24829456.804 -437791.914 5794314.198 10 0 60108 35100.00000 0 25354826.256 -520217.198 2649412.440 10 0 60108 36000.00000 0 25482351.136 -637662.658 -547016.560 10 0 60108 36900.00000 0 25208942.691 -735845.016 -3732799.745 10 0 60108 37800.00000 0 24544704.137 -761233.874 -6845944.757 10 0 60108 38700.00000 0 23512518.142 -663571.970 -9825854.628 10 0 60108 39600.00000 0 22147114.979 -398257.714 -12614516.212 10 0 60108 40500.00000 0 20493660.386 71512.399 -15157638.227 10 0 60108 41400.00000 0 18605922.580 772933.709 -17405715.824 10 0 60108 42300.00000 0 16544095.752 1722193.656 -19315000.194 10 0 60108 43200.00000 0 14372371.832 2923542.862 -20848353.869 10 0 60108 44100.00000 0 12156362.790 4368877.423 -21975974.888 10 0 60108 45000.00000 0 9960481.847 6037850.982 -22675975.761 10 0 60108 45900.00000 0 7845393.300 7898512.706 -22934806.254 10 0 60108 46800.00000 0 5865637.494 9908445.029 -22747512.186 10 0 60108 47700.00000 0 4067529.756 12016353.936 -22117825.715 10 0 60108 48600.00000 0 2487420.241 14164045.523 -21058085.849 10 0 60108 49500.00000 0 1150386.242 16288706.436 -19588991.234 10 0 60108 50400.00000 0 69410.184 18325392.982 -17739190.438 10 0 60108 51300.00000 0 -754924.021 20209625.014 -15544718.054 10 0 60108 52200.00000 0 -1334205.421 21879976.378 -13048287.900 10 0 60108 53100.00000 0 -1691452.630 23280553.776 -10298457.316 10 0 60108 54000.00000 0 -1859885.730 24363260.670 -7348679.099 10 0 60108 54900.00000 0 -1881266.875 25089751.900 -4256259.732 10 0 60108 55800.00000 0 -1803881.025 25432997.651 -1081244.455 10 0 60108 56700.00000 0 -1680243.250 25378391.889 2114748.918 10 0 60108 57600.00000 0 -1564630.308 24924359.473 5269724.608 10 0 60108 58500.00000 0 -1510541.384 24082437.207 8322508.606 10 0 60108 59400.00000 0 -1568195.620 22876826.064 11213930.302 10 0 60108 60300.00000 0 -1782172.226 21343433.802 13887963.374 10 0 60108 61200.00000 0 -2189292.775 19528448.380 16292804.227 10 0 60108 62100.00000 0 -2816834.969 17486501.803 18381867.745 10 0 60108 63000.00000 0 -3681153.157 15278500.823 20114681.888 10 0 60108 63900.00000 0 -4786763.906 12969214.417 21457664.657 10 0 60108 64800.00000 0 -6125935.589 10624717.744 22384769.268 10 0 60108 65700.00000 0 -7678800.088 8309797.880 22877985.817 10 0 60108 66600.00000 0 -9413983.193 6085428.087 22927690.239 10 0 60108 67500.00000 0 -11289728.860 4006414.401 22532834.055 10 0 60108 68400.00000 0 -13255472.127 2119311.177 21700971.111 10 0 60108 69300.00000 0 -15253796.810 460691.315 20448120.311 10 0 60108 70200.00000 0 -17222698.052 -944157.731 18798466.198 10 0 60108 71100.00000 0 -19098056.790 -2082058.381 16783902.069 10 0 60108 72000.00000 0 -20816223.996 -2952253.821 14443423.326 10 0 60108 72900.00000 0 -22316607.404 -3566192.571 11822381.551 10 0 60108 73800.00000 0 -23544152.776 -3946795.940 8971612.679 10 0 60108 74700.00000 0 -24451615.516 -4127239.247 5946455.366 10 0 60108 75600.00000 0 -25001526.732 -4149298.363 2805678.101 10 0 60108 76500.00000 0 -25167770.247 -4061331.671 -389664.236 10 0 60108 77400.00000 0 -24936703.121 -3915983.308 -3577421.799 10 0 60108 78300.00000 0 -24307771.413 -3767705.666 -6695565.421 10 0 60108 79200.00000 0 -23293594.180 -3670207.119 -9683401.940 10 0 60108 80100.00000 0 -21919511.313 -3673934.329 -12482764.498 10 0 60108 81000.00000 0 -20222613.653 -3823697.146 -15039153.604 10 0 60108 81900.00000 0 -18250295.812 -4156538.080 -17302805.823 10 0 60108 82800.00000 0 -16058392.489 -4699937.857 -19229668.511 10 0 60108 83700.00000 0 -13708976.584 -5470434.176 -20782261.142 10 0 60108 84600.00000 0 -11267911.642 -6472713.077 -21930406.260 10 0 60108 85500.00000 0 -8802261.329 -7699212.157 -22651815.875 99